Voltar ao catálogo

ATLAS 5 CENTAUR DEB

LostHEO
NORAD 43971·DEBRIS·🇺🇸 United States

Lançado Sep 17, 2014 de Cape Canaveral Space Force Station

Loading…

Próximas Passagens (próximas 24 horas)

TLE

ObsoletoSource: Space-Track

Época: Oct 30, 2024, 10:03 UTC

1 43971U 14055AA  24304.41942266 -.00000061  00000-0  00000+0 0  9993
2 43971  19.8828 213.9990 4721697  46.4486 344.1621  1.85585364 41723

Acompanhe ATLAS 5 CENTAUR DEB em tempo real com AllMySat

Download on the App Store